Weather History for Baton Rouge, LA

Change the Weather History Date:

Sunday, October 23, 2011

  Actual Average Record
Temperature  
Mean Temperature 68 °F 67 °F  
Max Temperature 81 °F 79 °F 91 °F (1939)
Min Temperature 54 °F 56 °F 37 °F (1937)
Degree Days  
Heating Degree Days 0 2  
Month to date heating degree days 38 23  
Since 1 July heating degree days 38 25  
Cooling Degree Days 3 4  
Month to date cooling degree days 92 149  
Year to date cooling degree days 2941 2720  
Growing Degree Days 18 (Base 50)    
Moisture  
Dew Point 58 °F    
Average Humidity 72    
Maximum Humidity 100    
Minimum Humidity 44    
Precipitation  
Precipitation 0.10 in 0.16 in 2.73 in (1913)
Month to date precipitation 0.12 3.47  
Year to date precipitation 38.84 49.72  
Snow  
Snow 0.00 in - - ()
Month to date snowfall 0.0  
Since 1 July snowfall 0.0  
Since 1 September snowfall 0.0  
Snow Depth 0.00 in    
Sea Level Pressure  
Sea Level Pressure 30.06 in    
Wind  
Wind Speed 4 mph (SSW)    
Max Wind Speed 12 mph    
Max Gust Speed 16 mph    
Visibility 9 miles    
Events Rain    
T = Trace of Precipitation, MM = Missing Value Source: NWS Daily Summary

Daily Weather History Graph

Daily Weather History Graph

Search for Another Location

Airport:

Trip Planner

Search our weather history database for the weather conditions in past years. The results will help you decide how hot, cold, wet, or windy it might be!

Date:

Astronomy

Oct. 23, 2011 Rise Set
Actual Time 7:12 AM CDT 6:25 PM CDT
Civil Twilight 6:47 AM CDT 6:49 PM CDT
Nautical Twilight 6:19 AM CDT 7:17 PM CDT
Astronomical Twilight 5:51 AM CDT 7:45 PM CDT
Moon 3:33 AM CDT (10/23) 4:04 PM CDT (10/23)
Length of Visible Light 12h 01m
Length of Day
11h 12m
Waning Crescent, 14% of the Moon is Illuminated
Oct 23
Waning Crescent
Oct 26
New
Nov 2
First Quarter
Nov 10
Full
Nov 18
Last Quarter

Hourly Weather History & Observations

Time (CDT) Temp. Heat Index Dew Point Humidity Pressure Visibility Wind Dir Wind Speed Gust Speed Precip Events Conditions
12:53 AM 57.0 °F - 53.1 °F 87% 30.07 in 10.0 mi Calm Calm - N/A   Clear
1:53 AM 55.9 °F - 53.1 °F 90% 30.06 in 10.0 mi Calm Calm - 0.00 in Rain Light Rain
2:53 AM 55.0 °F - 53.1 °F 93% 30.07 in 10.0 mi Calm Calm - 0.00 in   Scattered Clouds
3:53 AM 57.9 °F - 55.0 °F 90% 30.06 in 10.0 mi Calm Calm - N/A   Overcast
4:53 AM 57.9 °F - 55.0 °F 90% 30.06 in 10.0 mi Calm Calm - N/A   Mostly Cloudy
5:53 AM 59.0 °F - 55.9 °F 90% 30.07 in 10.0 mi Calm Calm - N/A   Overcast
6:53 AM 59.0 °F - 55.0 °F 87% 30.08 in 10.0 mi Calm Calm - N/A   Overcast
7:53 AM 59.0 °F - 55.9 °F 90% 30.09 in 9.0 mi East 3.5 mph - N/A   Overcast
8:53 AM 61.0 °F - 55.9 °F 83% 30.07 in 9.0 mi Calm Calm - N/A   Partly Cloudy
9:53 AM 72.0 °F - 51.1 °F 48% 30.07 in 10.0 mi SSE 6.9 mph - N/A   Clear
10:53 AM 73.9 °F - 50.0 °F 43% 30.08 in 10.0 mi South 6.9 mph - N/A   Clear
11:53 AM 75.9 °F - 53.1 °F 45% 30.08 in 10.0 mi Variable 5.8 mph - N/A   Partly Cloudy
12:53 PM 78.1 °F - 55.9 °F 46% 30.05 in 10.0 mi SSW 6.9 mph - N/A   Mostly Cloudy
1:53 PM 79.0 °F - 57.9 °F 48% 30.03 in 10.0 mi West 8.1 mph - N/A   Mostly Cloudy
2:53 PM 80.1 °F 80.7 °F 59.0 °F 48% 30.02 in 10.0 mi West 8.1 mph - N/A   Mostly Cloudy
3:53 PM 80.1 °F 80.7 °F 59.0 °F 48% 30.00 in 10.0 mi SW 6.9 mph - N/A   Partly Cloudy
4:53 PM 77.0 °F - 60.1 °F 56% 30.00 in 10.0 mi SSW 8.1 mph - N/A   Mostly Cloudy
5:53 PM 75.9 °F - 60.1 °F 58% 30.01 in 10.0 mi SSW 8.1 mph - N/A   Overcast
6:53 PM 70.0 °F - 66.9 °F 90% 30.04 in 9.0 mi Calm Calm - 0.01 in Rain Light Rain
7:53 PM 66.9 °F - 66.9 °F 100% 30.07 in 3.0 mi West 4.6 mph - 0.06 in Rain Rain
8:53 PM 68.0 °F - 66.9 °F 96% 30.09 in 8.0 mi Calm Calm - 0.03 in   Overcast
9:53 PM 68.0 °F - 66.0 °F 93% 30.10 in 8.0 mi South 4.6 mph - N/A   Overcast
10:53 PM 66.0 °F - 64.9 °F 96% 30.11 in 8.0 mi South 4.6 mph - 0.00 in   Scattered Clouds
11:53 PM 66.0 °F - 64.9 °F 96% 30.11 in 7.0 mi South 3.5 mph - N/A   Mostly Cloudy